[[{"header":{"parameterUnit":"m.s-1","parameterCategory":1,"la1":30.2991,"la2":30.254,"lo1":-89.0895,"lo2":-89.0444,"dy":0.0017,"dx":0.0017,"nx":28,"ny":28,"refTime":"2023-09-19T21:00:00:Z","depth":0,"parameterNumber":2,"parameterNumberName":"U-component_of_WINDS"},"data":[0,0,0,0,0,0,0,0,0,0,0,0,0,0,0,0,0,0,0,0,0,0,0,0,0,0,0,0,0,0,0,0,0,0,0,0,0,0,0,0,0,0,0,0,0,0,0,0,0,0,0,0,0,0,0,0,0,0,-6.991,-6.9911,0,-7.0082,-7.0084,-7.0086,-6.9971,-6.9966,-6.9961,-6.9956,-7.0134,-7.0143,-7.0153,0,0,0,0,0,0,0,0,0,0,0,0,0,-6.9481,-6.949,-6.9909,-6.9912,-6.9914,-7.0082,-7.0084,-7.0087,-6.9972,-6.9966,-6.996,-6.9954,-7.0131,-7.0142,-7.0154,0,0,0,0,0,0,0,0,0,0,0,0,0,-6.9662,-6.9493,-6.9909,-6.9877,-6.9876,-7.0081,-7.0084,-7.0087,-6.9974,-6.9966,-6.9958,-6.9951,-7.0127,-7.0141,-7.0155,-7.0402,0,0,-7.02,-7.0206,0,0,0,0,0,0,0,0,-6.9652,-6.9678,-6.988,-6.988,-6.9879,-6.9997,-6.9998,-7.0193,-6.9976,-6.9937,-6.9956,-6.9947,-7.0095,-7.0112,-7.0161,-7.0411,-7.0418,-7.0201,-7.021,-7.0216,-7.022,0,0,0,0,0,0,0,-6.964,-6.967,-6.9978,-6.9883,-6.9882,-6.9854,-6.9871,-7.0035,-7.0058,-6.9939,-6.9932,-6.9953,-7.0093,-7.0148,-7.0165,-7.0421,-7.0201,-7.0213,-7.0222,-7.0228,-7.088,-7.0888,0,0,0,0,0,0,-6.963,-6.966,-6.9972,-6.9983,-6.9744,-6.9868,-6.9887,-6.9967,-7.0056,-7.0062,-6.996,-6.9947,-7.0127,-7.0148,-7.017,-7.0464,-7.0216,-7.0229,-7.0238,-7.0871,-7.0882,-7.0891,0,0,0,0,0,0,-6.9621,-6.9659,-6.9965,-6.982,-6.9856,-6.9884,-6.9975,-6.9975,-7.0029,-7.0071,-7.0075,-7.0011,-7.0121,-7.015,-7.0345,-7.0468,-7.0236,-7.0249,-7.0861,-7.0875,-7.0887,-7.1053,0,0,0,0,0,0,-6.9609,-6.9656,-6.975,-6.9823,-6.9865,-7.0137,-6.9982,-6.9984,-7.0054,-7.0039,-7.012,-7.0126,-7.0117,-7.0324,-7.036,-7.0484,-7.026,-7.085,-7.0867,-7.0883,-7.1037,-7.107,-7.1099,0,0,0,0,0,-6.9594,-6.9791,-6.9756,-6.9794,-6.9983,-7.0145,-7.0169,-7.0154,-7.0064,-7.0159,-7.0186,-7.0124,-7.045,-7.0345,-7.0384,-7.0515,-7.0842,-7.0862,-7.0881,-7.1023,-7.1064,-7.1098,0,0,0,0,0,0,-6.9733,-6.98,-6.9761,-6.9987,-7.0061,-7.0125,-7.0244,-7.0198,-7.0299,-7.0281,-7.0259,-7.0279,-7.0482,-7.0518,-7.0401,-7.0758,-7.0632,-7.066,-7.0726,-7.0765,-7.0796,-7.0782,-7.0272,0,0,0,0,0,-6.979,-6.9916,-6.9967,-7.0162,-7.0201,-7.0216,-7.0286,-7.0269,-7.0344,-7.0375,-7.0416,-7.0493,-7.0612,-7.0691,-7.0803,-7.1042,-7.1057,-7.1151,-7.1182,-7.1208,-7.1232,-7.1359,-7.1401,-7.0955,-7.0955,-7.0955,0,0,-6.9909,-6.9961,-7.0041,-7.0191,-7.0246,-7.0376,-7.0243,-7.0387,-7.0484,-7.0397,-7.0583,-7.0617,-7.07,-7.0918,-7.1016,-7.0954,-7.1358,-7.1232,-7.1252,-7.1263,-7.1383,-7.1425,-7.1463,-7.0968,-7.0966,-7.0964,0,0,-7.0191,-7.0244,-7.041,-7.0468,-7.0553,-7.0562,-7.0602,-7.0674,-7.0692,-7.0878,-7.0816,-7.0931,-7.1137,-7.1198,-7.1257,-7.1563,-7.1508,-7.16,-7.1762,-7.1886,-7.1921,-7.1952,-7.2059,-7.2098,-7.1624,-7.1625,-7.1625,0,-7.0328,-7.0521,-7.0502,-7.065,-7.0717,-7.0645,-7.0813,-7.087,-7.0988,-7.1036,-7.0965,-7.1222,-7.1273,-7.1503,-7.1578,-7.1629,-7.1673,-7.159,-7.1918,-7.1949,-7.1977,-7.2079,-7.212,-7.1635,-7.1634,-7.1633,-7.1632,0,-7.0684,-7.082,-7.0944,-7.1058,-7.114,-7.1298,-7.1302,-7.1387,-7.1363,-7.1379,-7.1569,-7.1629,-7.1751,-7.1805,-7.1783,-7.2032,-7.1991,-7.192,-7.1793,-7.203,-7.2126,-7.2165,-7.165,-7.1646,-7.1643,-7.1641,0,0,-7.1058,-7.1159,-7.1205,-7.1255,-7.1343,-7.1448,-7.1602,-7.1721,-7.1793,-7.1878,-7.2006,-7.2182,-7.2116,-7.2183,-7.2168,-7.2277,-7.2513,-7.2192,-7.2194,-7.2248,-7.279,-7.2841,-7.2887,-7.2479,-7.2486,-7.2492,-7.2782,0,-7.1343,-7.1611,-7.1598,-7.185,-7.1973,-7.1907,-7.2041,-7.211,-7.213,-7.2238,-7.226,-7.2385,-7.229,-7.2329,-7.2435,-7.2462,-7.2621,-7.2442,-7.2597,-7.2603,-7.2576,-7.2937,-7.2992,-7.3262,-7.2819,-7.2826,-7.283,0,-7.1712,-7.1807,-7.207,-7.2139,-7.219,-7.2311,-7.2418,-7.2523,-7.26,-7.2606,-7.2681,-7.2648,-7.2804,-7.2674,-7.2888,-7.2766,-7.2829,-7.2853,-7.2863,-7.2875,-7.2729,-7.2957,-7.3348,-7.3388,-7.2889,-7.2885,-7.288,0,-7.1955,-7.2149,-7.2331,-7.2377,-7.2462,-7.2548,-7.2588,-7.2657,-7.2729,-7.2823,-7.2869,-7.2982,-7.3042,-7.313,-7.3128,-7.3034,-7.3344,-7.3215,-7.3353,-7.3354,-7.342,-7.3416,-7.3825,-7.3465,-7.3464,-7.3464,-7.3463,0,-7.2274,-7.2437,-7.2441,-7.2553,-7.2734,-7.2718,-7.2897,-7.2928,-7.299,-7.3107,-7.3057,-7.3167,-7.3158,-7.3271,-7.327,-7.3447,-7.3475,-7.3485,-7.3482,-7.3488,-7.3487,-7.3527,-7.3508,-7.3474,-7.3472,-7.347,-7.3468,0,-7.2575,-7.2585,-7.2779,-7.2843,-7.2863,-7.2994,-7.3049,-7.3155,-7.317,-7.3319,-7.3352,-7.3377,-7.3506,-7.3513,-7.3663,-7.3662,-7.3876,-7.3854,-7.385,-7.3845,-7.3982,-7.3969,-7.4431,-7.449,-7.4094,-7.4097,-7.4101,0,-7.2777,-7.2901,-7.2978,-7.3052,-7.3097,-7.3217,-7.329,-7.3279,-7.3357,-7.3453,-7.3548,-7.3672,-7.377,-7.398,-7.4012,-7.4125,-7.4104,-7.4259,-7.4121,-7.4122,-7.4104,-7.4096,-7.4108,-7.4285,-7.4289,-7.4293,-7.4295,0,-7.3133,-7.3132,-7.3238,-7.3347,-7.3435,-7.352,-7.3599,-7.3663,-7.3662,-7.3752,-7.3883,-7.3959,-7.4111,-7.4235,-7.4345,-7.4386,-7.4341,-7.4339,-7.4376,-7.4383,-7.4374,-7.4378,-7.3921,-7.4328,-7.4324,-7.4322,-7.432,-7.4319,-7.339,-7.3496,-7.3566,-7.3686,-7.3745,-7.382,-7.3922,-7.395,-7.4059,-7.418,-7.4168,-7.4313,-7.4386,-7.453,-7.458,-7.4693,-7.4641,-7.4696,-7.4709,-7.4723,-7.4736,-7.4358,-7.4714,-7.4713,-7.4712,-7.4711,-7.4711,0,-7.3741,-7.3783,-7.3894,-7.4006,-7.41,-7.4049,-7.4134,-7.4217,-7.4344,-7.4416,-7.4514,-7.4664,-7.4783,-7.4825,-7.4941,-7.5024,-7.5006,-7.5054,-7.5047,-7.5057,-7.4778,-7.4732,-7.5067,-7.5067,-7.5067,-7.5066,-7.5066,-7.5066,-7.3935,-7.4111,-7.4119,-7.4323,-7.4364,-7.4505,-7.4557,-7.4626,-7.4683,-7.4852,-7.4951,-7.4977,-7.5036,-7.5156,-7.5264,-7.5273,-7.5317,-7.5374,-7.5375,-7.5113,-7.5077,-7.5043,-7.5,-7.5385,-7.5385,-7.5644,-7.5646,-7.5648]},{"header":{"parameterUnit":"m.s-1","parameterCategory":1,"la1":30.2991,"la2":30.254,"lo1":-89.0895,"lo2":-89.0444,"dy":0.0017,"dx":0.0017,"nx":28,"ny":28,"refTime":"2023-09-19T21:00:00:Z","depth":0,"parameterNumber":3,"parameterNumberName":"V-component_of_WINDS"},"data":[0,0,0,0,0,0,0,0,0,0,0,0,0,0,0,0,0,0,0,0,0,0,0,0,0,0,0,0,0,0,0,0,0,0,0,0,0,0,0,0,0,0,0,0,0,0,0,0,0,0,0,0,0,0,0,0,0,0,1.7588,1.7588,0,1.7635,1.7636,1.7636,1.7658,1.7658,1.7658,1.7658,1.7701,1.7702,1.7703,0,0,0,0,0,0,0,0,0,0,0,0,0,1.7513,1.7514,1.7588,1.7588,1.7589,1.7635,1.7636,1.7636,1.7658,1.7658,1.7658,1.7658,1.77,1.7702,1.7703,0,0,0,0,0,0,0,0,0,0,0,0,0,1.7551,1.7515,1.7587,1.7605,1.7608,1.7635,1.7636,1.7637,1.7658,1.7658,1.7658,1.7658,1.77,1.7701,1.7703,1.7714,0,0,1.7708,1.7709,0,0,0,0,0,0,0,0,1.7549,1.7554,1.7602,1.7604,1.7607,1.7641,1.7625,1.7662,1.7658,1.7639,1.7658,1.7658,1.768,1.7684,1.7692,1.7716,1.7718,1.7709,1.771,1.771,1.7711,0,0,0,0,0,0,0,1.7546,1.7552,1.7606,1.7603,1.7606,1.761,1.7616,1.7632,1.7659,1.764,1.7642,1.7648,1.7681,1.7691,1.7694,1.7719,1.7709,1.771,1.7711,1.7712,1.7758,1.7758,0,0,0,0,0,0,1.7541,1.755,1.7605,1.7608,1.7577,1.7612,1.7618,1.763,1.7659,1.7663,1.7648,1.7649,1.7688,1.7692,1.7695,1.7712,1.771,1.7712,1.7713,1.7758,1.7758,1.7758,0,0,0,0,0,0,1.754,1.7546,1.7603,1.7579,1.7587,1.7613,1.7626,1.7631,1.764,1.7665,1.7669,1.7653,1.7688,1.7693,1.7711,1.7714,1.7713,1.7714,1.7758,1.7758,1.7758,1.7745,0,0,0,0,0,0,1.7538,1.7545,1.755,1.7579,1.7588,1.7618,1.7627,1.7632,1.7644,1.7645,1.767,1.7674,1.7688,1.7708,1.7712,1.7716,1.7716,1.7757,1.7758,1.7758,1.7745,1.7745,1.7745,0,0,0,0,0,1.7535,1.7542,1.755,1.7557,1.7595,1.7618,1.7623,1.7641,1.7644,1.7649,1.7665,1.7673,1.7713,1.771,1.7715,1.7719,1.7757,1.7758,1.7758,1.7745,1.7745,1.7745,0,0,0,0,0,0,1.7509,1.7546,1.7555,1.7573,1.7593,1.7622,1.7628,1.7639,1.7657,1.7657,1.7677,1.7683,1.7699,1.7711,1.7706,1.7734,1.7736,1.7738,1.7725,1.7725,1.7724,1.772,1.7717,0,0,0,0,0,1.7506,1.7524,1.7555,1.7567,1.7577,1.7601,1.7612,1.7625,1.7645,1.7653,1.767,1.7688,1.7706,1.7716,1.7733,1.7748,1.7754,1.7754,1.7754,1.7753,1.7754,1.7765,1.7766,1.776,1.776,1.776,0,0,1.7499,1.7521,1.753,1.7563,1.7579,1.7597,1.7608,1.7624,1.7637,1.7654,1.7674,1.7688,1.7709,1.7727,1.7735,1.7737,1.7757,1.7754,1.7753,1.7754,1.7766,1.7766,1.7766,1.776,1.776,1.776,0,0,1.7494,1.7513,1.7527,1.7545,1.7572,1.7589,1.7593,1.7622,1.7632,1.7653,1.7667,1.7682,1.7711,1.7727,1.7738,1.7746,1.7754,1.7751,1.7748,1.7759,1.7759,1.776,1.7763,1.7764,1.7751,1.7751,1.7751,0,1.7481,1.7509,1.7532,1.7549,1.7564,1.7585,1.7599,1.7615,1.7645,1.7654,1.7656,1.7695,1.7711,1.7734,1.7737,1.7745,1.775,1.7747,1.7758,1.7758,1.7759,1.7762,1.7764,1.7751,1.7751,1.7751,1.7751,0,1.7492,1.7511,1.7519,1.7552,1.7567,1.7582,1.7608,1.7621,1.7634,1.765,1.7672,1.7693,1.7716,1.7722,1.7733,1.7748,1.7748,1.7754,1.7757,1.7759,1.7762,1.7764,1.775,1.775,1.775,1.7751,0,0,1.7468,1.7518,1.752,1.7537,1.757,1.7585,1.7603,1.7628,1.7639,1.766,1.7676,1.7702,1.7709,1.7722,1.7736,1.7746,1.7752,1.7751,1.7752,1.775,1.7771,1.7766,1.7767,1.7759,1.776,1.776,1.7769,0,1.7468,1.7503,1.7526,1.7551,1.757,1.7593,1.7609,1.7631,1.7648,1.7666,1.7685,1.7704,1.7711,1.772,1.7731,1.7749,1.7757,1.7749,1.7773,1.7773,1.7766,1.7769,1.7763,1.777,1.7771,1.7771,1.7771,0,1.7472,1.7497,1.7524,1.756,1.7569,1.7582,1.761,1.7627,1.7653,1.7666,1.7683,1.7699,1.7718,1.7722,1.7749,1.7744,1.7755,1.7766,1.7767,1.7769,1.7771,1.777,1.7773,1.7774,1.7773,1.7773,1.7773,0,1.7453,1.7493,1.7516,1.7529,1.7571,1.758,1.7598,1.7625,1.764,1.7663,1.7673,1.7698,1.7711,1.7729,1.7751,1.7751,1.7777,1.7781,1.7787,1.7786,1.7789,1.7788,1.7793,1.7798,1.7798,1.7798,1.7798,0,1.745,1.7466,1.7508,1.7522,1.7541,1.7569,1.7587,1.7606,1.7631,1.7649,1.7669,1.7685,1.7713,1.7733,1.7749,1.7771,1.7776,1.7786,1.779,1.7784,1.7783,1.779,1.779,1.7798,1.7798,1.7798,1.7798,0,1.743,1.7459,1.7486,1.7526,1.7536,1.7549,1.7582,1.7596,1.7617,1.7639,1.7646,1.7677,1.7701,1.7726,1.7757,1.7769,1.779,1.7795,1.7781,1.7783,1.7788,1.7787,1.7797,1.78,1.7803,1.7803,1.7803,0,1.7426,1.744,1.7483,1.7498,1.7516,1.7539,1.7556,1.7585,1.7602,1.7636,1.7646,1.7673,1.7695,1.7733,1.7757,1.7783,1.7789,1.7791,1.7792,1.7787,1.7789,1.7788,1.779,1.7789,1.7789,1.7789,1.7789,0,1.7416,1.7431,1.7456,1.7487,1.7508,1.7533,1.7558,1.7569,1.7603,1.762,1.7648,1.7666,1.7701,1.7727,1.7756,1.7773,1.7786,1.7789,1.7792,1.7784,1.7776,1.7781,1.7779,1.7788,1.7788,1.7788,1.7788,1.7788,1.7404,1.7419,1.7452,1.748,1.7504,1.7529,1.7545,1.757,1.7594,1.7626,1.7642,1.7669,1.7698,1.7739,1.7757,1.7778,1.7781,1.7785,1.7785,1.7786,1.7785,1.7774,1.7783,1.7783,1.7783,1.7783,1.7783,0,1.7395,1.742,1.7445,1.7483,1.7505,1.7521,1.7551,1.7568,1.7593,1.762,1.7644,1.7676,1.7703,1.7732,1.776,1.7772,1.7779,1.7778,1.7777,1.7781,1.778,1.7775,1.7772,1.7772,1.7772,1.7772,1.7772,1.7772,1.7393,1.742,1.7439,1.7478,1.7502,1.7531,1.7548,1.7571,1.7593,1.7629,1.7653,1.7673,1.7701,1.7733,1.7758,1.7766,1.7775,1.7772,1.7782,1.778,1.778,1.7781,1.7777,1.7774,1.7774,1.7781,1.7781,1.7781]}]]